Torna al catalogo

FENGYUN 1C DEB

LostSSO
NORAD 30473·DEBRIS·🇨🇳 China

Lanciato May 10, 1999 da Taiyuan Satellite Launch Center

Loading…

Prossimi Passaggi (prossime 24 ore)

TLE

ObsoletoSource: Space-Track

Epoca: Feb 3, 2022, 07:11 UTC

1 30473U 99025AGL 22034.29960867  .00002178  00000-0  86739-3 0  9994
2 30473  98.8568  72.3219 0008291 250.6314 109.3971 14.29661665778141

Traccia FENGYUN 1C DEB in tempo reale con AllMySat

Download on the App Store